owner,sensor,date,latitude,longitude,air_pressure(mBar),qcFlag 
WAVCIS,ioos:station:WAVCIS:CSI03:1,2013-07-01T00:00:00Z,29.4412,-92.0613,1001.263,11111222 
WAVCIS,ioos:station:WAVCIS:CSI03:1,2013-07-01T01:00:00Z,29.4412,-92.0613,1001.649,11111222 
WAVCIS,ioos:station:WAVCIS:CSI03:1,2013-07-01T02:00:00Z,29.4412,-92.0613,1001.991,11111222 
WAVCIS,ioos:station:WAVCIS:CSI03:1,2013-07-01T03:00:00Z,29.4412,-92.0613,1002.589,11111222 
WAVCIS,ioos:station:WAVCIS:CSI03:1,2013-07-01T04:00:00Z,29.4412,-92.0613,1003.13,11111222 
WAVCIS,ioos:station:WAVCIS:CSI03:1,2013-07-01T05:00:00Z,29.4412,-92.0613,1003.31,11111222 
WAVCIS,ioos:station:WAVCIS:CSI03:1,2013-07-01T06:00:00Z,29.4412,-92.0613,1003.48,11111222 
WAVCIS,ioos:station:WAVCIS:CSI03:1,2013-07-01T07:00:00Z,29.4412,-92.0613,1003.7,11111222 
WAVCIS,ioos:station:WAVCIS:CSI03:1,2013-07-01T08:00:00Z,29.4412,-92.0613,1003.87,11111222 
WAVCIS,ioos:station:WAVCIS:CSI03:1,2013-07-01T09:00:00Z,29.4412,-92.0613,1004.13,11111222 
WAVCIS,ioos:station:WAVCIS:CSI03:1,2013-07-01T10:00:00Z,29.4412,-92.0613,1004.38,11111222 
WAVCIS,ioos:station:WAVCIS:CSI03:1,2013-07-01T11:00:00Z,29.4412,-92.0613,1004.59,11111222 
WAVCIS,ioos:station:WAVCIS:CSI03:1,2013-07-01T12:00:00Z,29.4412,-92.0613,1004.83,11111222 
WAVCIS,ioos:station:WAVCIS:CSI03:1,2013-07-01T13:00:00Z,29.4412,-92.0613,1005.32,11111222 
WAVCIS,ioos:station:WAVCIS:CSI03:1,2013-07-01T14:00:00Z,29.4412,-92.0613,1005.85,11111222 
WAVCIS,ioos:station:WAVCIS:CSI03:1,2013-07-01T15:00:00Z,29.4412,-92.0613,1006.32,11111222 
WAVCIS,ioos:station:WAVCIS:CSI03:1,2013-07-01T16:00:00Z,29.4412,-92.0613,1006.43,11111222 
WAVCIS,ioos:station:WAVCIS:CSI03:1,2013-07-01T17:00:00Z,29.4412,-92.0613,1006.17,11111222 
WAVCIS,ioos:station:WAVCIS:CSI03:1,2013-07-01T18:00:00Z,29.4412,-92.0613,1006.17,11111222 
WAVCIS,ioos:station:WAVCIS:CSI03:1,2013-07-01T19:00:00Z,29.4412,-92.0613,1005.65,11111222 
WAVCIS,ioos:station:WAVCIS:CSI03:1,2013-07-01T20:00:00Z,29.4412,-92.0613,1005.35,11111222 
WAVCIS,ioos:station:WAVCIS:CSI03:1,2013-07-02T00:00:00Z,29.4412,-92.0613,1005.38,11111222 
WAVCIS,ioos:station:WAVCIS:CSI03:1,2013-07-02T01:00:00Z,29.4412,-92.0613,1005.95,11111222 
WAVCIS,ioos:station:WAVCIS:CSI03:1,2013-07-02T02:00:00Z,29.4412,-92.0613,1006.13,11111222 
WAVCIS,ioos:station:WAVCIS:CSI03:1,2013-07-02T03:00:00Z,29.4412,-92.0613,1006.66,11111222 
WAVCIS,ioos:station:WAVCIS:CSI03:1,2013-07-02T04:00:00Z,29.4412,-92.0613,1007.1,11111222 
WAVCIS,ioos:station:WAVCIS:CSI03:1,2013-07-02T05:00:00Z,29.4412,-92.0613,1007.2,11111222 
WAVCIS,ioos:station:WAVCIS:CSI03:1,2013-07-02T06:00:00Z,29.4412,-92.0613,1007.0,11111222 
WAVCIS,ioos:station:WAVCIS:CSI03:1,2013-07-02T07:00:00Z,29.4412,-92.0613,1006.57,11111222 
WAVCIS,ioos:station:WAVCIS:CSI03:1,2013-07-02T08:00:00Z,29.4412,-92.0613,1006.74,11111222 
WAVCIS,ioos:station:WAVCIS:CSI03:1,2013-07-02T09:00:00Z,29.4412,-92.0613,1006.94,11111222 
WAVCIS,ioos:station:WAVCIS:CSI03:1,2013-07-02T10:00:00Z,29.4412,-92.0613,1007.29,11111222 
WAVCIS,ioos:station:WAVCIS:CSI03:1,2013-07-02T11:00:00Z,29.4412,-92.0613,1007.68,11111222 
WAVCIS,ioos:station:WAVCIS:CSI03:1,2013-07-02T12:00:00Z,29.4412,-92.0613,1008.15,11111222 
WAVCIS,ioos:station:WAVCIS:CSI03:1,2013-07-02T13:00:00Z,29.4412,-92.0613,1008.46,11111222 
WAVCIS,ioos:station:WAVCIS:CSI03:1,2013-07-02T14:00:00Z,29.4412,-92.0613,1008.88,11111222 
WAVCIS,ioos:station:WAVCIS:CSI03:1,2013-07-02T15:00:00Z,29.4412,-92.0613,1009.18,11111222 
WAVCIS,ioos:station:WAVCIS:CSI03:1,2013-07-02T16:00:00Z,29.4412,-92.0613,1009.21,11111222 
WAVCIS,ioos:station:WAVCIS:CSI03:1,2013-07-02T17:00:00Z,29.4412,-92.0613,1009.28,11111222 
WAVCIS,ioos:station:WAVCIS:CSI03:1,2013-07-02T18:00:00Z,29.4412,-92.0613,1009.25,11111222 
WAVCIS,ioos:station:WAVCIS:CSI03:1,2013-07-02T19:00:00Z,29.4412,-92.0613,1009.02,11111222 
WAVCIS,ioos:station:WAVCIS:CSI03:1,2013-07-02T20:00:00Z,29.4412,-92.0613,1008.32,11111222 
WAVCIS,ioos:station:WAVCIS:CSI03:1,2013-07-02T21:00:00Z,29.4412,-92.0613,1007.91,11111222 
WAVCIS,ioos:station:WAVCIS:CSI03:1,2013-07-02T22:00:00Z,29.4412,-92.0613,1007.46,11111222 
WAVCIS,ioos:station:WAVCIS:CSI03:1,2013-07-02T23:00:00Z,29.4412,-92.0613,1007.48,11111222 
WAVCIS,ioos:station:WAVCIS:CSI03:1,2013-07-03T00:00:00Z,29.4412,-92.0613,1007.93,11111222 
WAVCIS,ioos:station:WAVCIS:CSI03:1,2013-07-03T01:00:00Z,29.4412,-92.0613,1008.27,11111222 
WAVCIS,ioos:station:WAVCIS:CSI03:1,2013-07-03T02:00:00Z,29.4412,-92.0613,1008.44,11111222 
WAVCIS,ioos:station:WAVCIS:CSI03:1,2013-07-03T03:00:00Z,29.4412,-92.0613,1008.79,11111222 
WAVCIS,ioos:station:WAVCIS:CSI03:1,2013-07-03T04:00:00Z,29.4412,-92.0613,1008.99,11111222 
WAVCIS,ioos:station:WAVCIS:CSI03:1,2013-07-03T05:00:00Z,29.4412,-92.0613,1009.08,11111222 
WAVCIS,ioos:station:WAVCIS:CSI03:1,2013-07-03T06:00:00Z,29.4412,-92.0613,1008.99,11111222 
WAVCIS,ioos:station:WAVCIS:CSI03:1,2013-07-03T07:00:00Z,29.4412,-92.0613,1008.67,11111222 
WAVCIS,ioos:station:WAVCIS:CSI03:1,2013-07-03T08:00:00Z,29.4412,-92.0613,1008.23,11111222 
WAVCIS,ioos:station:WAVCIS:CSI03:1,2013-07-03T09:00:00Z,29.4412,-92.0613,1008.09,11111222 
WAVCIS,ioos:station:WAVCIS:CSI03:1,2013-07-03T10:00:00Z,29.4412,-92.0613,1008.3,11111222 
WAVCIS,ioos:station:WAVCIS:CSI03:1,2013-07-03T11:00:00Z,29.4412,-92.0613,1008.38,11111222 
WAVCIS,ioos:station:WAVCIS:CSI03:1,2013-07-03T12:00:00Z,29.4412,-92.0613,1008.58,11111222 
WAVCIS,ioos:station:WAVCIS:CSI03:1,2013-07-03T13:00:00Z,29.4412,-92.0613,1009.12,11111222 
WAVCIS,ioos:station:WAVCIS:CSI03:1,2013-07-03T14:00:00Z,29.4412,-92.0613,1009.62,11111222 
WAVCIS,ioos:station:WAVCIS:CSI03:1,2013-07-03T15:00:00Z,29.4412,-92.0613,1009.7,11111222 
WAVCIS,ioos:station:WAVCIS:CSI03:1,2013-07-03T16:00:00Z,29.4412,-92.0613,1010.2,11111222 
WAVCIS,ioos:station:WAVCIS:CSI03:1,2013-07-03T17:00:00Z,29.4412,-92.0613,1009.77,11111222 
WAVCIS,ioos:station:WAVCIS:CSI03:1,2013-07-03T18:00:00Z,29.4412,-92.0613,1009.36,11111222 
WAVCIS,ioos:station:WAVCIS:CSI03:1,2013-07-03T19:00:00Z,29.4412,-92.0613,1008.88,11111222 
WAVCIS,ioos:station:WAVCIS:CSI03:1,2013-07-03T20:00:00Z,29.4412,-92.0613,1008.5,11111222 
WAVCIS,ioos:station:WAVCIS:CSI03:1,2013-07-03T21:00:00Z,29.4412,-92.0613,1007.99,11111222 
WAVCIS,ioos:station:WAVCIS:CSI03:1,2013-07-03T22:00:00Z,29.4412,-92.0613,1007.68,11111222 
WAVCIS,ioos:station:WAVCIS:CSI03:1,2013-07-03T23:00:00Z,29.4412,-92.0613,1007.28,11111222 
WAVCIS,ioos:station:WAVCIS:CSI03:1,2013-07-04T00:00:00Z,29.4412,-92.0613,1007.16,11111222 
WAVCIS,ioos:station:WAVCIS:CSI03:1,2013-07-04T01:00:00Z,29.4412,-92.0613,1007.3,11111222 
WAVCIS,ioos:station:WAVCIS:CSI03:1,2013-07-04T02:00:00Z,29.4412,-92.0613,1007.45,11111222 
WAVCIS,ioos:station:WAVCIS:CSI03:1,2013-07-04T03:00:00Z,29.4412,-92.0613,1007.85,11111222 
WAVCIS,ioos:station:WAVCIS:CSI03:1,2013-07-04T04:00:00Z,29.4412,-92.0613,1008.15,11111222 
WAVCIS,ioos:station:WAVCIS:CSI03:1,2013-07-04T05:00:00Z,29.4412,-92.0613,1008.1,11111222 
WAVCIS,ioos:station:WAVCIS:CSI03:1,2013-07-04T06:00:00Z,29.4412,-92.0613,1007.91,11111222 
WAVCIS,ioos:station:WAVCIS:CSI03:1,2013-07-04T07:00:00Z,29.4412,-92.0613,1007.77,11111222 
WAVCIS,ioos:station:WAVCIS:CSI03:1,2013-07-04T08:00:00Z,29.4412,-92.0613,1007.39,11111222 
WAVCIS,ioos:station:WAVCIS:CSI03:1,2013-07-04T09:00:00Z,29.4412,-92.0613,1007.11,11111222 
WAVCIS,ioos:station:WAVCIS:CSI03:1,2013-07-04T10:00:00Z,29.4412,-92.0613,1007.17,11111222 
WAVCIS,ioos:station:WAVCIS:CSI03:1,2013-07-04T11:00:00Z,29.4412,-92.0613,1007.29,11111222 
WAVCIS,ioos:station:WAVCIS:CSI03:1,2013-07-04T12:00:00Z,29.4412,-92.0613,1007.8,11111222 
WAVCIS,ioos:station:WAVCIS:CSI03:1,2013-07-04T13:00:00Z,29.4412,-92.0613,1008.18,11111222 
WAVCIS,ioos:station:WAVCIS:CSI03:1,2013-07-04T14:00:00Z,29.4412,-92.0613,1008.16,11111222 
WAVCIS,ioos:station:WAVCIS:CSI03:1,2013-07-04T15:00:00Z,29.4412,-92.0613,1008.21,11111222 
WAVCIS,ioos:station:WAVCIS:CSI03:1,2013-07-04T16:00:00Z,29.4412,-92.0613,1008.59,11111222 
WAVCIS,ioos:station:WAVCIS:CSI03:1,2013-07-04T17:00:00Z,29.4412,-92.0613,1008.61,11111222 
WAVCIS,ioos:station:WAVCIS:CSI03:1,2013-07-04T18:00:00Z,29.4412,-92.0613,1008.5,11111222 
WAVCIS,ioos:station:WAVCIS:CSI03:1,2013-07-04T19:00:00Z,29.4412,-92.0613,1007.95,11111222 
WAVCIS,ioos:station:WAVCIS:CSI03:1,2013-07-04T20:00:00Z,29.4412,-92.0613,1007.48,11111222 
WAVCIS,ioos:station:WAVCIS:CSI03:1,2013-07-04T21:00:00Z,29.4412,-92.0613,1007.1,11111222 
WAVCIS,ioos:station:WAVCIS:CSI03:1,2013-07-04T22:00:00Z,29.4412,-92.0613,1006.76,11111222 
WAVCIS,ioos:station:WAVCIS:CSI03:1,2013-07-04T23:00:00Z,29.4412,-92.0613,1006.7,11111222 
WAVCIS,ioos:station:WAVCIS:CSI03:1,2013-07-05T00:00:00Z,29.4412,-92.0613,1006.72,11111222 
WAVCIS,ioos:station:WAVCIS:CSI03:1,2013-07-05T01:00:00Z,29.4412,-92.0613,1006.98,11111222 
WAVCIS,ioos:station:WAVCIS:CSI03:1,2013-07-05T02:00:00Z,29.4412,-92.0613,1007.25,11111222 
WAVCIS,ioos:station:WAVCIS:CSI03:1,2013-07-05T03:00:00Z,29.4412,-92.0613,1007.42,11111222 
WAVCIS,ioos:station:WAVCIS:CSI03:1,2013-07-05T04:00:00Z,29.4412,-92.0613,1008.02,11111222 
WAVCIS,ioos:station:WAVCIS:CSI03:1,2013-07-05T05:00:00Z,29.4412,-92.0613,1008.17,11111222 
WAVCIS,ioos:station:WAVCIS:CSI03:1,2013-07-05T06:00:00Z,29.4412,-92.0613,1007.88,11111222 
WAVCIS,ioos:station:WAVCIS:CSI03:1,2013-07-05T07:00:00Z,29.4412,-92.0613,1007.53,11111222 
WAVCIS,ioos:station:WAVCIS:CSI03:1,2013-07-05T08:00:00Z,29.4412,-92.0613,1007.4,11111222 
WAVCIS,ioos:station:WAVCIS:CSI03:1,2013-07-05T09:00:00Z,29.4412,-92.0613,1007.16,11111222 
WAVCIS,ioos:station:WAVCIS:CSI03:1,2013-07-05T10:00:00Z,29.4412,-92.0613,1007.44,11111222 
WAVCIS,ioos:station:WAVCIS:CSI03:1,2013-07-05T11:00:00Z,29.4412,-92.0613,1007.74,11111222 
WAVCIS,ioos:station:WAVCIS:CSI03:1,2013-07-05T12:00:00Z,29.4412,-92.0613,1007.7,11111222 
WAVCIS,ioos:station:WAVCIS:CSI03:1,2013-07-05T13:00:00Z,29.4412,-92.0613,1007.72,11111222 
WAVCIS,ioos:station:WAVCIS:CSI03:1,2013-07-05T14:00:00Z,29.4412,-92.0613,1008.45,11111222 
WAVCIS,ioos:station:WAVCIS:CSI03:1,2013-07-05T15:00:00Z,29.4412,-92.0613,1008.71,11111222 
WAVCIS,ioos:station:WAVCIS:CSI03:1,2013-07-05T16:00:00Z,29.4412,-92.0613,1008.69,11111222 
WAVCIS,ioos:station:WAVCIS:CSI03:1,2013-07-05T17:00:00Z,29.4412,-92.0613,1008.87,11111222 
WAVCIS,ioos:station:WAVCIS:CSI03:1,2013-07-05T18:00:00Z,29.4412,-92.0613,1008.37,11111222 
WAVCIS,ioos:station:WAVCIS:CSI03:1,2013-07-05T19:00:00Z,29.4412,-92.0613,1007.72,11111222 
WAVCIS,ioos:station:WAVCIS:CSI03:1,2013-07-05T20:00:00Z,29.4412,-92.0613,1006.41,11111222 
WAVCIS,ioos:station:WAVCIS:CSI03:1,2013-07-05T21:00:00Z,29.4412,-92.0613,1006.85,11111222 
WAVCIS,ioos:station:WAVCIS:CSI03:1,2013-07-05T22:00:00Z,29.4412,-92.0613,1006.55,11111222 
WAVCIS,ioos:station:WAVCIS:CSI03:1,2013-07-05T23:00:00Z,29.4412,-92.0613,1006.57,11111222 
WAVCIS,ioos:station:WAVCIS:CSI03:1,2013-07-06T00:00:00Z,29.4412,-92.0613,1006.5,11111222 
WAVCIS,ioos:station:WAVCIS:CSI03:1,2013-07-06T01:00:00Z,29.4412,-92.0613,1007.01,11111222 
WAVCIS,ioos:station:WAVCIS:CSI03:1,2013-07-06T02:00:00Z,29.4412,-92.0613,1007.56,11111222 
WAVCIS,ioos:station:WAVCIS:CSI03:1,2013-07-06T03:00:00Z,29.4412,-92.0613,1007.54,11111222 
WAVCIS,ioos:station:WAVCIS:CSI03:1,2013-07-06T04:00:00Z,29.4412,-92.0613,1007.73,11111222 
WAVCIS,ioos:station:WAVCIS:CSI03:1,2013-07-06T05:00:00Z,29.4412,-92.0613,1007.56,11111222 
WAVCIS,ioos:station:WAVCIS:CSI03:1,2013-07-06T06:00:00Z,29.4412,-92.0613,1007.53,11111222 
WAVCIS,ioos:station:WAVCIS:CSI03:1,2013-07-06T07:00:00Z,29.4412,-92.0613,1007.33,11111222 
WAVCIS,ioos:station:WAVCIS:CSI03:1,2013-07-06T08:00:00Z,29.4412,-92.0613,1007.01,11111222 
WAVCIS,ioos:station:WAVCIS:CSI03:1,2013-07-06T09:00:00Z,29.4412,-92.0613,1007.03,11111222 
WAVCIS,ioos:station:WAVCIS:CSI03:1,2013-07-06T10:00:00Z,29.4412,-92.0613,1006.82,11111222 
WAVCIS,ioos:station:WAVCIS:CSI03:1,2013-07-06T11:00:00Z,29.4412,-92.0613,1006.93,11111222 
WAVCIS,ioos:station:WAVCIS:CSI03:1,2013-07-06T12:00:00Z,29.4412,-92.0613,1007.28,11111222 
WAVCIS,ioos:station:WAVCIS:CSI03:1,2013-07-06T13:00:00Z,29.4412,-92.0613,1007.79,11111222 
WAVCIS,ioos:station:WAVCIS:CSI03:1,2013-07-06T14:00:00Z,29.4412,-92.0613,1008.24,11111222 
WAVCIS,ioos:station:WAVCIS:CSI03:1,2013-07-06T15:00:00Z,29.4412,-92.0613,1008.16,11111222 
WAVCIS,ioos:station:WAVCIS:CSI03:1,2013-07-06T16:00:00Z,29.4412,-92.0613,1008.11,11111222 
WAVCIS,ioos:station:WAVCIS:CSI03:1,2013-07-06T17:00:00Z,29.4412,-92.0613,1008.02,11111222 
WAVCIS,ioos:station:WAVCIS:CSI03:1,2013-07-06T18:00:00Z,29.4412,-92.0613,1007.96,11111222 
WAVCIS,ioos:station:WAVCIS:CSI03:1,2013-07-06T19:00:00Z,29.4412,-92.0613,1007.54,11111222 
WAVCIS,ioos:station:WAVCIS:CSI03:1,2013-07-06T20:00:00Z,29.4412,-92.0613,1007.12,11111222 
WAVCIS,ioos:station:WAVCIS:CSI03:1,2013-07-06T21:00:00Z,29.4412,-92.0613,1006.68,11111222 
WAVCIS,ioos:station:WAVCIS:CSI03:1,2013-07-06T22:00:00Z,29.4412,-92.0613,1006.61,11111222 
WAVCIS,ioos:station:WAVCIS:CSI03:1,2013-07-06T23:00:00Z,29.4412,-92.0613,1006.46,11111222 
WAVCIS,ioos:station:WAVCIS:CSI03:1,2013-07-07T00:00:00Z,29.4412,-92.0613,1006.4,11111222 
WAVCIS,ioos:station:WAVCIS:CSI03:1,2013-07-07T01:00:00Z,29.4412,-92.0613,1007.13,11111222 
WAVCIS,ioos:station:WAVCIS:CSI03:1,2013-07-07T02:00:00Z,29.4412,-92.0613,1007.99,11111222 
WAVCIS,ioos:station:WAVCIS:CSI03:1,2013-07-07T03:00:00Z,29.4412,-92.0613,1008.57,11111222 
WAVCIS,ioos:station:WAVCIS:CSI03:1,2013-07-07T04:00:00Z,29.4412,-92.0613,1008.04,11111222 
WAVCIS,ioos:station:WAVCIS:CSI03:1,2013-07-07T05:00:00Z,29.4412,-92.0613,1007.89,11111222 
WAVCIS,ioos:station:WAVCIS:CSI03:1,2013-07-07T06:00:00Z,29.4412,-92.0613,1007.75,11111222 
WAVCIS,ioos:station:WAVCIS:CSI03:1,2013-07-07T07:00:00Z,29.4412,-92.0613,1007.64,11111222 
WAVCIS,ioos:station:WAVCIS:CSI03:1,2013-07-07T08:00:00Z,29.4412,-92.0613,1007.4,11111222 
WAVCIS,ioos:station:WAVCIS:CSI03:1,2013-07-07T09:00:00Z,29.4412,-92.0613,1007.92,11111222 
WAVCIS,ioos:station:WAVCIS:CSI03:1,2013-07-07T10:00:00Z,29.4412,-92.0613,1007.92,11111222 
WAVCIS,ioos:station:WAVCIS:CSI03:1,2013-07-07T11:00:00Z,29.4412,-92.0613,1008.13,11111222 
WAVCIS,ioos:station:WAVCIS:CSI03:1,2013-07-07T12:00:00Z,29.4412,-92.0613,1008.97,11111222 
WAVCIS,ioos:station:WAVCIS:CSI03:1,2013-07-07T13:00:00Z,29.4412,-92.0613,1009.78,11111222 
WAVCIS,ioos:station:WAVCIS:CSI03:1,2013-07-07T14:00:00Z,29.4412,-92.0613,1010.27,11111222 
WAVCIS,ioos:station:WAVCIS:CSI03:1,2013-07-07T15:00:00Z,29.4412,-92.0613,1010.4,11111222 
WAVCIS,ioos:station:WAVCIS:CSI03:1,2013-07-07T16:00:00Z,29.4412,-92.0613,1010.48,11111222 
WAVCIS,ioos:station:WAVCIS:CSI03:1,2013-07-07T17:00:00Z,29.4412,-92.0613,1010.73,11111222 
WAVCIS,ioos:station:WAVCIS:CSI03:1,2013-07-07T18:00:00Z,29.4412,-92.0613,1010.81,11111222 
WAVCIS,ioos:station:WAVCIS:CSI03:1,2013-07-07T19:00:00Z,29.4412,-92.0613,1011.17,11111222 
WAVCIS,ioos:station:WAVCIS:CSI03:1,2013-07-07T20:00:00Z,29.4412,-92.0613,1011.67,11111222 
WAVCIS,ioos:station:WAVCIS:CSI03:1,2013-07-07T21:00:00Z,29.4412,-92.0613,1011.81,11111222 
WAVCIS,ioos:station:WAVCIS:CSI03:1,2013-07-07T22:00:00Z,29.4412,-92.0613,1010.99,11111222 
WAVCIS,ioos:station:WAVCIS:CSI03:1,2013-07-07T23:00:00Z,29.4412,-92.0613,1010.89,11111222 
WAVCIS,ioos:station:WAVCIS:CSI03:1,2013-07-08T00:00:00Z,29.4412,-92.0613,1010.8,11111222 
WAVCIS,ioos:station:WAVCIS:CSI03:1,2013-07-08T01:00:00Z,29.4412,-92.0613,1011.37,11111222 
WAVCIS,ioos:station:WAVCIS:CSI03:1,2013-07-08T02:00:00Z,29.4412,-92.0613,1011.33,11111222 
WAVCIS,ioos:station:WAVCIS:CSI03:1,2013-07-08T03:00:00Z,29.4412,-92.0613,1011.18,11111222 
WAVCIS,ioos:station:WAVCIS:CSI03:1,2013-07-08T04:00:00Z,29.4412,-92.0613,1011.66,11111222 
WAVCIS,ioos:station:WAVCIS:CSI03:1,2013-07-08T05:00:00Z,29.4412,-92.0613,1011.74,11111222 
WAVCIS,ioos:station:WAVCIS:CSI03:1,2013-07-08T06:00:00Z,29.4412,-92.0613,1011.45,11111222 
WAVCIS,ioos:station:WAVCIS:CSI03:1,2013-07-08T07:00:00Z,29.4412,-92.0613,1011.24,11111222 
WAVCIS,ioos:station:WAVCIS:CSI03:1,2013-07-08T08:00:00Z,29.4412,-92.0613,1011.51,11111222 
WAVCIS,ioos:station:WAVCIS:CSI03:1,2013-07-08T09:00:00Z,29.4412,-92.0613,1011.39,11111222 
WAVCIS,ioos:station:WAVCIS:CSI03:1,2013-07-08T10:00:00Z,29.4412,-92.0613,1012.02,11111222 
WAVCIS,ioos:station:WAVCIS:CSI03:1,2013-07-08T11:00:00Z,29.4412,-92.0613,1012.37,11111222 
WAVCIS,ioos:station:WAVCIS:CSI03:1,2013-07-08T12:00:00Z,29.4412,-92.0613,1012.94,11111222 
WAVCIS,ioos:station:WAVCIS:CSI03:1,2013-07-08T13:00:00Z,29.4412,-92.0613,1013.62,11111222 
WAVCIS,ioos:station:WAVCIS:CSI03:1,2013-07-08T14:00:00Z,29.4412,-92.0613,1014.27,11111222 
WAVCIS,ioos:station:WAVCIS:CSI03:1,2013-07-08T15:00:00Z,29.4412,-92.0613,1014.65,11111222 
WAVCIS,ioos:station:WAVCIS:CSI03:1,2013-07-08T16:00:00Z,29.4412,-92.0613,1014.79,11111222 
WAVCIS,ioos:station:WAVCIS:CSI03:1,2013-07-08T17:00:00Z,29.4412,-92.0613,1014.66,11111222 
WAVCIS,ioos:station:WAVCIS:CSI03:1,2013-07-08T18:00:00Z,29.4412,-92.0613,1014.49,11111222 
WAVCIS,ioos:station:WAVCIS:CSI03:1,2013-07-08T19:00:00Z,29.4412,-92.0613,1013.85,11111222 
WAVCIS,ioos:station:WAVCIS:CSI03:1,2013-07-08T20:00:00Z,29.4412,-92.0613,1013.59,11111222 
WAVCIS,ioos:station:WAVCIS:CSI03:1,2013-07-08T21:00:00Z,29.4412,-92.0613,1013.22,11111222 
WAVCIS,ioos:station:WAVCIS:CSI03:1,2013-07-08T22:00:00Z,29.4412,-92.0613,1013.05,11111222 
WAVCIS,ioos:station:WAVCIS:CSI03:1,2013-07-08T23:00:00Z,29.4412,-92.0613,1012.92,11111222 
WAVCIS,ioos:station:WAVCIS:CSI03:1,2013-07-09T00:00:00Z,29.4412,-92.0613,1013.36,11111222 
WAVCIS,ioos:station:WAVCIS:CSI03:1,2013-07-09T01:00:00Z,29.4412,-92.0613,1012.98,11111222 
WAVCIS,ioos:station:WAVCIS:CSI03:1,2013-07-09T02:00:00Z,29.4412,-92.0613,1013.1,11111222 
WAVCIS,ioos:station:WAVCIS:CSI03:1,2013-07-09T03:00:00Z,29.4412,-92.0613,1013.23,11111222 
WAVCIS,ioos:station:WAVCIS:CSI03:1,2013-07-09T04:00:00Z,29.4412,-92.0613,1013.94,11111222 
WAVCIS,ioos:station:WAVCIS:CSI03:1,2013-07-09T05:00:00Z,29.4412,-92.0613,1014.0,11111222 
WAVCIS,ioos:station:WAVCIS:CSI03:1,2013-07-09T06:00:00Z,29.4412,-92.0613,1013.65,11111222 
WAVCIS,ioos:station:WAVCIS:CSI03:1,2013-07-09T07:00:00Z,29.4412,-92.0613,1013.46,11111222 
WAVCIS,ioos:station:WAVCIS:CSI03:1,2013-07-09T08:00:00Z,29.4412,-92.0613,1013.53,11111222 
WAVCIS,ioos:station:WAVCIS:CSI03:1,2013-07-09T09:00:00Z,29.4412,-92.0613,1013.62,11111222 
WAVCIS,ioos:station:WAVCIS:CSI03:1,2013-07-09T10:00:00Z,29.4412,-92.0613,1013.67,11111222 
WAVCIS,ioos:station:WAVCIS:CSI03:1,2013-07-09T11:00:00Z,29.4412,-92.0613,1013.98,11111222 
WAVCIS,ioos:station:WAVCIS:CSI03:1,2013-07-09T12:00:00Z,29.4412,-92.0613,1014.25,11111222 
WAVCIS,ioos:station:WAVCIS:CSI03:1,2013-07-09T13:00:00Z,29.4412,-92.0613,1014.81,11111222 
WAVCIS,ioos:station:WAVCIS:CSI03:1,2013-07-09T14:00:00Z,29.4412,-92.0613,1015.17,11111222 
WAVCIS,ioos:station:WAVCIS:CSI03:1,2013-07-09T15:00:00Z,29.4412,-92.0613,1015.67,11111222 
WAVCIS,ioos:station:WAVCIS:CSI03:1,2013-07-09T16:00:00Z,29.4412,-92.0613,1015.69,11111222 
WAVCIS,ioos:station:WAVCIS:CSI03:1,2013-07-09T17:00:00Z,29.4412,-92.0613,1015.4,11111222 
WAVCIS,ioos:station:WAVCIS:CSI03:1,2013-07-09T18:00:00Z,29.4412,-92.0613,1015.17,11111222 
WAVCIS,ioos:station:WAVCIS:CSI03:1,2013-07-09T19:00:00Z,29.4412,-92.0613,1014.65,11111222 
WAVCIS,ioos:station:WAVCIS:CSI03:1,2013-07-09T20:00:00Z,29.4412,-92.0613,1014.05,11111222 
WAVCIS,ioos:station:WAVCIS:CSI03:1,2013-07-09T21:00:00Z,29.4412,-92.0613,1013.79,11111222 
WAVCIS,ioos:station:WAVCIS:CSI03:1,2013-07-09T22:00:00Z,29.4412,-92.0613,1013.17,11111222 
WAVCIS,ioos:station:WAVCIS:CSI03:1,2013-07-09T23:00:00Z,29.4412,-92.0613,1012.72,11111222 
WAVCIS,ioos:station:WAVCIS:CSI03:1,2013-07-10T00:00:00Z,29.4412,-92.0613,1012.91,11111222 
WAVCIS,ioos:station:WAVCIS:CSI03:1,2013-07-10T01:00:00Z,29.4412,-92.0613,1012.52,11111222 
WAVCIS,ioos:station:WAVCIS:CSI03:1,2013-07-10T02:00:00Z,29.4412,-92.0613,1012.62,11111222 
WAVCIS,ioos:station:WAVCIS:CSI03:1,2013-07-10T03:00:00Z,29.4412,-92.0613,1012.86,11111222 
WAVCIS,ioos:station:WAVCIS:CSI03:1,2013-07-10T04:00:00Z,29.4412,-92.0613,1013.21,11111222 
WAVCIS,ioos:station:WAVCIS:CSI03:1,2013-07-10T05:00:00Z,29.4412,-92.0613,1013.28,11111222 
WAVCIS,ioos:station:WAVCIS:CSI03:1,2013-07-10T06:00:00Z,29.4412,-92.0613,1012.59,11111222 
WAVCIS,ioos:station:WAVCIS:CSI03:1,2013-07-10T07:00:00Z,29.4412,-92.0613,1012.34,11111222 
WAVCIS,ioos:station:WAVCIS:CSI03:1,2013-07-10T08:00:00Z,29.4412,-92.0613,1012.46,11111222 
WAVCIS,ioos:station:WAVCIS:CSI03:1,2013-07-10T09:00:00Z,29.4412,-92.0613,1012.47,11111222 
WAVCIS,ioos:station:WAVCIS:CSI03:1,2013-07-10T10:00:00Z,29.4412,-92.0613,1012.55,11111222 
WAVCIS,ioos:station:WAVCIS:CSI03:1,2013-07-10T11:00:00Z,29.4412,-92.0613,1012.86,11111222 
WAVCIS,ioos:station:WAVCIS:CSI03:1,2013-07-10T12:00:00Z,29.4412,-92.0613,1013.05,11111222 
WAVCIS,ioos:station:WAVCIS:CSI03:1,2013-07-10T13:00:00Z,29.4412,-92.0613,1013.21,11111222 
WAVCIS,ioos:station:WAVCIS:CSI03:1,2013-07-10T14:00:00Z,29.4412,-92.0613,1013.29,11111222 
WAVCIS,ioos:station:WAVCIS:CSI03:1,2013-07-10T15:00:00Z,29.4412,-92.0613,1013.52,11111222 
WAVCIS,ioos:station:WAVCIS:CSI03:1,2013-07-10T16:00:00Z,29.4412,-92.0613,1013.67,11111222 
WAVCIS,ioos:station:WAVCIS:CSI03:1,2013-07-10T17:00:00Z,29.4412,-92.0613,1013.58,11111222 
WAVCIS,ioos:station:WAVCIS:CSI03:1,2013-07-10T18:00:00Z,29.4412,-92.0613,1013.02,11111222 
WAVCIS,ioos:station:WAVCIS:CSI03:1,2013-07-10T19:00:00Z,29.4412,-92.0613,1012.45,11111222 
WAVCIS,ioos:station:WAVCIS:CSI03:1,2013-07-10T20:00:00Z,29.4412,-92.0613,1011.89,11111222 
WAVCIS,ioos:station:WAVCIS:CSI03:1,2013-07-10T21:00:00Z,29.4412,-92.0613,1011.08,11111222 
WAVCIS,ioos:station:WAVCIS:CSI03:1,2013-07-10T22:00:00Z,29.4412,-92.0613,1010.55,11111222 
WAVCIS,ioos:station:WAVCIS:CSI03:1,2013-07-10T23:00:00Z,29.4412,-92.0613,1009.94,11111222 
WAVCIS,ioos:station:WAVCIS:CSI03:1,2013-07-11T00:00:00Z,29.4412,-92.0613,1009.52,11111222 
WAVCIS,ioos:station:WAVCIS:CSI03:1,2013-07-11T01:00:00Z,29.4412,-92.0613,1009.67,11111222 
WAVCIS,ioos:station:WAVCIS:CSI03:1,2013-07-11T02:00:00Z,29.4412,-92.0613,1009.58,11111222 
WAVCIS,ioos:station:WAVCIS:CSI03:1,2013-07-11T03:00:00Z,29.4412,-92.0613,1009.64,11111222 
WAVCIS,ioos:station:WAVCIS:CSI03:1,2013-07-11T04:00:00Z,29.4412,-92.0613,1010.03,11111222 
WAVCIS,ioos:station:WAVCIS:CSI03:1,2013-07-11T05:00:00Z,29.4412,-92.0613,1009.62,11111222 
WAVCIS,ioos:station:WAVCIS:CSI03:1,2013-07-11T06:00:00Z,29.4412,-92.0613,1009.78,11111222 
WAVCIS,ioos:station:WAVCIS:CSI03:1,2013-07-11T07:00:00Z,29.4412,-92.0613,1010.12,11111222 
WAVCIS,ioos:station:WAVCIS:CSI03:1,2013-07-11T08:00:00Z,29.4412,-92.0613,1010.06,11111222 
WAVCIS,ioos:station:WAVCIS:CSI03:1,2013-07-11T09:00:00Z,29.4412,-92.0613,1010.13,11111222 
WAVCIS,ioos:station:WAVCIS:CSI03:1,2013-07-11T10:00:00Z,29.4412,-92.0613,1010.11,11111222 
WAVCIS,ioos:station:WAVCIS:CSI03:1,2013-07-11T11:00:00Z,29.4412,-92.0613,1009.82,11111222 
WAVCIS,ioos:station:WAVCIS:CSI03:1,2013-07-11T12:00:00Z,29.4412,-92.0613,1009.6,11111222 
WAVCIS,ioos:station:WAVCIS:CSI03:1,2013-07-11T13:00:00Z,29.4412,-92.0613,1009.73,11111222 
WAVCIS,ioos:station:WAVCIS:CSI03:1,2013-07-11T14:00:00Z,29.4412,-92.0613,1009.87,11111222 
WAVCIS,ioos:station:WAVCIS:CSI03:1,2013-07-11T15:00:00Z,29.4412,-92.0613,1009.92,11111222 
WAVCIS,ioos:station:WAVCIS:CSI03:1,2013-07-11T16:00:00Z,29.4412,-92.0613,1010.15,11111222 
WAVCIS,ioos:station:WAVCIS:CSI03:1,2013-07-11T17:00:00Z,29.4412,-92.0613,1010.04,11111222 
WAVCIS,ioos:station:WAVCIS:CSI03:1,2013-07-11T18:00:00Z,29.4412,-92.0613,1009.65,11111222 
WAVCIS,ioos:station:WAVCIS:CSI03:1,2013-07-11T19:00:00Z,29.4412,-92.0613,1008.99,11111222 
WAVCIS,ioos:station:WAVCIS:CSI03:1,2013-07-11T20:00:00Z,29.4412,-92.0613,1008.88,11111222 
WAVCIS,ioos:station:WAVCIS:CSI03:1,2013-07-11T21:00:00Z,29.4412,-92.0613,1008.26,11111222 
WAVCIS,ioos:station:WAVCIS:CSI03:1,2013-07-11T22:00:00Z,29.4412,-92.0613,1007.96,11111222 
WAVCIS,ioos:station:WAVCIS:CSI03:1,2013-07-11T23:00:00Z,29.4412,-92.0613,1007.72,11111222 
WAVCIS,ioos:station:WAVCIS:CSI03:1,2013-07-12T00:00:00Z,29.4412,-92.0613,1008.64,11111222 
WAVCIS,ioos:station:WAVCIS:CSI03:1,2013-07-12T01:00:00Z,29.4412,-92.0613,1007.92,11111222 